Location: Miami
(25.6830°N, 80.1700°W)
Time: 18:36:44
(UTC-04:00)

Hubble Space Telescope - Visible Passes

Search period start: 18 June 2018 00:00
Search period end: 28 June 2018 00:00
Orbit: 537 x 541 km, 28.5° (Epoch: 18 June)

Date Brightness Start Highest point End Pass type
(mag) Time Alt. Az. Time Alt. Az. Time Alt. Az.
18 Jun 1.3 20:48:12 10° WNW 20:52:17 58° N 20:56:21 10° E visible
18 Jun 1.8 22:29:28 10° WNW 22:32:17 42° W 22:32:17 42° W visible
19 Jun 1.2 20:37:54 10° WNW 20:42:00 62° N 20:46:05 10° E visible
19 Jun 1.4 22:19:10 10° W 22:22:21 48° WSW 22:22:21 48° WSW visible
20 Jun 1.3 22:08:53 10° W 22:12:25 47° SW 22:12:25 47° SW visible
21 Jun 1.5 21:58:40 10° W 22:02:30 39° SSW 22:02:30 39° SSW visible
22 Jun 1.8 21:48:29 10° W 21:52:08 30° SSW 21:52:36 30° S visible
23 Jun 2.2 21:38:24 10° W 21:41:45 24° SSW 21:42:44 22° S visible
24 Jun 2.6 21:28:27 10° WSW 21:31:20 18° SSW 21:32:53 15° S visible
25 Jun 3.0 21:18:44 10° WSW 21:20:56 14° SSW 21:23:05 10° S visible
26 Jun 3.3 21:09:52 10° SW 21:10:31 10° SSW 21:11:08 10° SSW visible
